JSX8974 VVDL-VVCR

Flight info

Callsign JSX8974
Flight time 0h 20m
Altitude 11000
Route PANCA PANCA1A
Aircraft E135/M-SDFGIRW/S

Departure

Time 2026-04-22 15:23
Airport Lien Khuong Airport (VVDL)

Arrival

Time 2026-04-22 15:44
Airport Cam Ranh International Airport / Cam Ranh Air Base (VVCR)
Time Latitude Longitude Altitude Speed Heading
2026-04-22 15:13 11.75016 108.36801 3161 ft 0 kts 177°
2026-04-22 15:22 11.75028 108.36800 3161 ft 3 kts 176°
2026-04-22 15:22 11.75061 108.36786 3161 ft 6 kts 121°
2026-04-22 15:22 11.75075 108.36788 3161 ft 17 kts 53°
2026-04-22 15:22 11.75275 108.36797 3162 ft 29 kts 356°
2026-04-22 15:23 11.75338 108.36728 3163 ft 9 kts 258°
2026-04-22 15:23 11.75306 108.36264 3160 ft 119 kts 265°
2026-04-22 15:23 11.75327 108.35228 3553 ft 157 kts 301°
2026-04-22 15:23 11.76080 108.35240 4456 ft 134 kts 64°
2026-04-22 15:24 11.76356 108.36168 5311 ft 146 kts 81°
2026-04-22 15:24 11.76571 108.37280 5935 ft 186 kts 77°
2026-04-22 15:24 11.76952 108.38721 6469 ft 235 kts 75°
2026-04-22 15:24 11.77404 108.40334 7910 ft 243 kts 74°
2026-04-22 15:25 11.77870 108.42011 9086 ft 262 kts 74°
2026-04-22 15:25 11.78393 108.43903 9962 ft 294 kts 74°
2026-04-22 15:25 11.78976 108.46022 10538 ft 333 kts 74°
2026-04-22 15:25 11.79619 108.48367 10810 ft 338 kts 73°
2026-04-22 15:26 11.80238 108.50621 10856 ft 320 kts 73°
2026-04-22 15:26 11.80857 108.52863 10863 ft 333 kts 73°
2026-04-22 15:26 11.81488 108.55167 10865 ft 336 kts 73°
2026-04-22 15:26 11.82114 108.57477 10866 ft 335 kts 74°
2026-04-22 15:27 11.82714 108.59704 10864 ft 316 kts 74°
2026-04-22 15:27 11.83282 108.61805 10862 ft 297 kts 74°
2026-04-22 15:27 11.83820 108.63796 10865 ft 290 kts 74°
2026-04-22 15:27 11.84359 108.65786 10866 ft 290 kts 74°
2026-04-22 15:28 11.84910 108.67832 10871 ft 308 kts 74°
2026-04-22 15:28 11.85504 108.70036 10871 ft 338 kts 74°
2026-04-22 15:28 11.86141 108.72399 10868 ft 346 kts 74°
2026-04-22 15:28 11.86780 108.74770 10868 ft 348 kts 74°
2026-04-22 15:29 11.87425 108.77163 10868 ft 348 kts 74°
2026-04-22 15:29 11.88075 108.79582 10873 ft 360 kts 74°
2026-04-22 15:29 11.88760 108.82130 10873 ft 386 kts 74°
2026-04-22 15:30 11.90231 108.87607 10875 ft 405 kts 74°
2026-04-22 15:30 11.90974 108.90375 10879 ft 405 kts 74°
2026-04-22 15:30 11.91722 108.93160 10882 ft 405 kts 74°
2026-04-22 15:30 11.92472 108.95953 10885 ft 405 kts 74°
2026-04-22 15:31 11.93216 108.98724 10888 ft 405 kts 74°
2026-04-22 15:31 11.93965 109.01511 10889 ft 402 kts 74°
2026-04-22 15:31 11.94685 109.04193 10722 ft 385 kts 74°
2026-04-22 15:31 11.95365 109.06725 10471 ft 355 kts 75°
2026-04-22 15:32 11.95991 109.09063 10222 ft 321 kts 75°
2026-04-22 15:32 11.96551 109.11150 9998 ft 291 kts 75°
2026-04-22 15:32 11.97057 109.13043 9811 ft 265 kts 75°
2026-04-22 15:32 11.97521 109.14777 9653 ft 242 kts 75°
2026-04-22 15:33 11.97962 109.16428 9485 ft 237 kts 75°
2026-04-22 15:33 11.98390 109.18029 9249 ft 232 kts 75°
2026-04-22 15:33 11.98814 109.19616 9032 ft 226 kts 75°
2026-04-22 15:33 11.99238 109.21158 8769 ft 224 kts 70°
2026-04-22 15:34 12.00004 109.22509 8497 ft 222 kts 49°
2026-04-22 15:34 12.01106 109.23602 8280 ft 218 kts 43°
2026-04-22 15:34 12.02213 109.24599 8115 ft 211 kts 42°
2026-04-22 15:34 12.03303 109.25575 7866 ft 204 kts 43°
2026-04-22 15:35 12.04366 109.26537 7599 ft 206 kts 43°
2026-04-22 15:35 12.05464 109.27541 7527 ft 215 kts 43°
2026-04-22 15:35 12.06576 109.28563 7520 ft 217 kts 43°
2026-04-22 15:35 12.07708 109.29606 7516 ft 218 kts 43°
2026-04-22 15:36 12.08829 109.30641 7514 ft 218 kts 43°
2026-04-22 15:36 12.09956 109.31683 7513 ft 218 kts 43°
2026-04-22 15:36 12.11088 109.32722 7502 ft 216 kts 43°
2026-04-22 15:36 12.12198 109.33737 7151 ft 211 kts 43°
2026-04-22 15:37 12.13286 109.34736 6519 ft 212 kts 43°
2026-04-22 15:37 12.14375 109.35739 5890 ft 212 kts 43°
2026-04-22 15:37 12.15498 109.36700 5285 ft 212 kts 35°
2026-04-22 15:37 12.16804 109.37271 4945 ft 202 kts 16°
2026-04-22 15:38 12.18180 109.37382 4696 ft 198 kts 357°
2026-04-22 15:38 12.20710 109.36250 4245 ft 211 kts 319°
2026-04-22 15:38 12.21605 109.35070 4009 ft 212 kts 298°
2026-04-22 15:39 12.22060 109.33627 3872 ft 213 kts 278°
2026-04-22 15:39 12.22014 109.32114 3803 ft 212 kts 258°
2026-04-22 15:39 12.21476 109.30708 3666 ft 220 kts 237°
2026-04-22 15:39 12.20438 109.29522 3569 ft 226 kts 217°
2026-04-22 15:40 12.19067 109.28735 3208 ft 224 kts 200°
2026-04-22 15:40 12.17601 109.28232 3021 ft 222 kts 195°
2026-04-22 15:40 12.16111 109.27777 3021 ft 223 kts 195°
2026-04-22 15:40 12.14636 109.27312 2994 ft 223 kts 195°
2026-04-22 15:41 12.13169 109.26830 2688 ft 212 kts 196°
2026-04-22 15:41 12.11813 109.26370 2348 ft 198 kts 197°
2026-04-22 15:41 12.10565 109.25935 2067 ft 181 kts 197°
2026-04-22 15:41 12.09469 109.25528 1903 ft 157 kts 198°
2026-04-22 15:42 12.08506 109.25162 1755 ft 136 kts 198°
2026-04-22 15:42 12.07660 109.24842 1619 ft 127 kts 197°
2026-04-22 15:42 12.06825 109.24530 1481 ft 126 kts 197°
2026-04-22 15:42 12.06000 109.24223 1328 ft 126 kts 197°
2026-04-22 15:43 12.05170 109.23914 1167 ft 125 kts 197°
2026-04-22 15:43 12.04346 109.23601 985 ft 128 kts 205°
2026-04-22 15:43 12.03509 109.23244 568 ft 129 kts 197°
2026-04-22 15:43 12.02681 109.22890 315 ft 134 kts 189°
2026-04-22 15:44 12.01812 109.22601 185 ft 127 kts 191°
2026-04-22 15:44 12.01010 109.22356 49 ft 111 kts 195°
2026-04-22 15:44 12.00582 109.22198 49 ft 21 kts 194°
2026-04-22 15:44 12.00621 109.22141 49 ft 16 kts 347°
2026-04-22 15:45 12.00736 109.22115 49 ft 17 kts 335°
2026-04-22 15:45 12.00787 109.22043 49 ft 9 kts 283°
2026-04-22 15:45 12.00802 109.21977 49 ft 10 kts 289°
2026-04-22 15:45 12.00863 109.21839 49 ft 16 kts 296°
2026-04-22 15:46 12.00921 109.21825 49 ft 12 kts 26°
2026-04-22 15:46 12.00979 109.21848 49 ft 2 kts
2026-04-22 15:46 12.01074 109.21880 49 ft 9 kts 40°
2026-04-22 15:46 12.01038 109.21908 49 ft 4 kts 153°
2026-04-22 15:47 12.00997 109.21925 49 ft 0 kts 157°